Location: Normandy Village
(37.8755°N, 122.2655°W)
Time: 14:03:23
(UTC+00:00)

BREEZE-M DEB (TANK) - Pass Details

Date: 22 September 2019
Orbit: 318 x 16615 km, 49.4° (Epoch: 15 October)

Event Time Altitude Azimuth Distance (km) Brightness Sun altitude
Exits shadow 12:41:04 19° 289° (WNW) 1,851 4.5 -15.6°
Maximum altitude 12:44:37 58° 215° (SW) 1,505 4.2 -14.9°
Drops below altitude 10° 13:02:45 10° 142° (SE) 8,156 8.6 -11.4°
Sets 13:15:22 0° 141° (SE) 12,061 9.6 -9.0°
